KN4QQN Weather Reports


Display with metric or nautical units.
time (UTC)temp
F
wind
direction
speed
MPH
gust
MPH
rain 1hr
in
rain 24hr
in
rain mn
in
humidity
%
barometer
mb
20260502221026 58 189 2.0 5.0 0.00 0.00 0.00 63
20260502220026 58 205 3.0 4.0 0.00 0.00 0.00 63
20260502215026 58 131 1.0 3.0 0.00 0.00 0.00 65
20260502214025 58 114 0.0 2.0 0.00 0.00 0.00 68
20260502213026 59 178 1.0 3.0 0.00 0.00 0.00 67
20260502212046 59 201 0.0 1.0 0.00 0.00 0.00 70
20260502211026 60 0.0 0.0 0.00 0.00 0.00 68
20260502210025 59 152 1.0 3.0 0.00 0.00 0.00 70
20260502205026 59 90 0.0 2.0 0.00 0.00 0.00 68
20260502204025 59 135 1.0 3.0 0.00 0.00 0.00 69
20260502203026 59 174 0.0 2.0 0.00 0.00 0.00 67
20260502202026 60 120 1.0 5.0 0.00 0.00 0.00 67
20260502201045 59 162 1.0 3.0 0.00 0.00 0.00 69
20260502200046 59 157 1.0 3.0 0.00 0.00 0.00 69
20260502195026 59 271 0.0 2.0 0.00 0.00 0.00 69
20260502194025 59 163 1.0 2.0 0.00 0.00 0.00 69
20260502193046 59 126 1.0 2.0 0.00 0.00 0.00 70
20260502192025 59 163 1.0 3.0 0.00 0.00 0.00 70
20260502191046 58 138 0.0 2.0 0.00 0.00 0.00 70
20260502190026 59 131 1.0 2.0 0.00 0.00 0.00 70
20260502185025 59 139 0.0 1.0 0.00 0.00 0.00 71
20260502184026 59 144 1.0 2.0 0.00 0.00 0.00 72
20260502183046 58 126 1.0 3.0 0.00 0.00 0.00 74
20260502182026 57 227 1.0 2.0 0.00 0.00 0.00 74
20260502181026 57 145 1.0 2.0 0.00 0.00 0.00 75
20260502163026 55 86 2.0 5.0 0.00 0.00 0.00 80
20260502162026 55 177 1.0 2.0 0.00 0.00 0.00 81
20260502161046 55 166 1.0 2.0 0.00 0.00 0.00 80
20260502152026 55 166 2.0 5.0 0.00 0.00 0.00 81
20260502151026 55 168 1.0 2.0 0.00 0.00 0.00 82
20260502123026 53 268 3.0 5.0 0.00 0.00 0.00 77
20260502122026 53 222 2.0 6.0 0.00 0.00 0.00 79
20260502121026 53 143 2.0 4.0 0.00 0.00 0.00 79
20260502115026 53 197 1.0 3.0 0.00 0.00 0.00 80
20260502114026 53 133 1.0 4.0 0.00 0.00 0.00 79
20260502113026 53 137 2.0 4.0 0.00 0.00 0.00 78
20260502112026 53 197 3.0 5.0 0.00 0.00 0.00 78
20260502111026 53 134 1.0 3.0 0.00 0.00 0.00 79
20260502110026 54 249 3.0 6.0 0.00 0.00 0.00 77
20260502105026 54 200 3.0 5.0 0.00 0.00 0.00 76
20260502104026 54 269 3.0 6.0 0.00 0.00 0.00 75
20260502103046 54 289 2.0 4.0 0.00 0.00 0.00 76
20260502102026 54 270 3.0 6.0 0.00 0.00 0.00 77
20260502101026 54 186 2.0 3.0 0.00 0.00 0.00 80
20260502091026 53 0.0 0.0 0.00 0.00 0.00 84
20260502071027 53 220 1.0 2.0 0.00 0.00 0.00 86
20260502070026 53 0.0 1.0 0.00 0.00 0.00 86
20260502065027 53 0.0 0.0 0.00 0.00 0.00 86
20260502064027 53 0.0 0.0 0.00 0.00 0.00 85
20260502063026 53 0.0 0.0 0.00 0.00 0.00 85
20260502062026 53 0.0 0.0 0.00 0.00 0.00 85
20260502061027 54 0.0 0.0 0.00 0.00 0.00 85
20260502060027 54 0.0 1.0 0.00 0.00 0.00 84
20260502055026 54 0.0 0.0 0.00 0.00 0.00 84
20260502054026 54 0.0 0.0 0.00 0.00 0.00 84
20260502053027 54 0.0 0.0 0.00 0.00 0.00 84
20260502052027 54 0.0 1.0 0.00 0.00 0.00 84
20260502051026 53 0.0 0.0 0.00 0.00 0.00 84
20260502050027 54 0.0 0.0 0.00 0.00 0.00 83
20260502045026 54 0.0 0.0 0.00 0.00 0.00 83
20260502044047 54 0.0 0.0 0.00 0.00 0.00 82
20260502043027 54 0.0 0.0 0.00 0.00 0.00 82
20260502042046 54 0.0 0.0 0.00 0.00 0.00 81
20260502041027 54 0.0 0.0 0.00 0.00 0.00 81
20260502040026 54 0.0 0.0 0.00 0.00 0.00 80
20260502035026 54 0.0 0.0 0.00 0.00 0.00 80
20260502034047 54 0.0 0.0 0.00 0.00 0.00 80
20260502033026 54 0.0 0.0 0.00 0.00 0.00 80
20260502032027 54 205 0.0 1.0 0.00 0.00 0.00 79
20260502031027 54 0.0 0.0 0.00 0.00 0.00 79
20260502030027 54 0.0 1.0 0.00 0.00 0.00 78
20260502025027 55 0.0 0.0 0.00 0.00 0.00 78
20260502024027 55 0.0 1.0 0.00 0.00 0.00 77
20260502023027 55 0.0 0.0 0.00 0.00 0.00 77
20260502022027 55 0.0 0.0 0.00 0.00 0.00 77
20260502021027 55 0.0 0.0 0.00 0.00 0.00 77
20260502020027 55 161 0.0 2.0 0.00 0.00 0.00 77
20260502015027 55 110 0.0 1.0 0.00 0.00 0.00 77
20260502014027 55 0.0 0.0 0.00 0.00 0.00 77
20260502013047 55 101 0.0 1.0 0.00 0.00 0.00 77
20260502012027 54 165 1.0 2.0 0.00 0.00 0.00 78
20260502011027 54 0.0 1.0 0.00 0.00 0.00 78
20260502010027 54 139 0.0 1.0 0.00 0.00 0.00 77
20260502005047 54 0.0 0.0 0.00 0.00 0.00 76
20260502004027 54 0.0 0.0 0.00 0.00 0.00 74
20260502003027 55 0.0 0.0 0.00 0.00 0.00 73
20260502002027 55 188 0.0 2.0 0.00 0.00 0.00 72
20260502001027 56 85 1.0 2.0 0.00 0.00 0.00 70
20260502000047 56 136 1.0 2.0 0.00 0.00 0.00 69
20260501235047 57 0.0 0.0 0.00 0.00 0.00 68
20260501234047 57 163 0.0 2.0 0.00 0.00 0.00 68
20260501233027 57 150 1.0 3.0 0.00 0.00 0.00 68
20260501232027 58 173 1.0 2.0 0.00 0.00 0.00 67
20260501231027 58 157 1.0 3.0 0.00 0.00 0.00 67
20260501230027 59 147 1.0 3.0 0.00 0.00 0.00 66
20260501225027 59 98 1.0 2.0 0.00 0.00 0.00 67
20260501224027 59 157 1.0 2.0 0.00 0.00 0.00 66
20260501223027 61 117 1.0 3.0 0.00 0.00 0.00 61
20260501222051 61 192 1.0 3.0 0.00 0.00 0.00 64